Location: Angwan Shehu
(11.2514°N, 7.4613°E)
Time: 23:47:55
(UTC+00:00)

SR - Pass Details

Date: 16 April 2021
Orbit: 573 x 882 km, 66.7° (Epoch: 11 May)

Event Time Altitude Azimuth Distance (km) Brightness Sun altitude
Rises 06:18:56 0° 191° (S) 3,057 ? 13.8°
Reaches altitude 10° 06:21:12 10° 186° (S) 2,188 ? 14.4°
Maximum altitude 06:26:07 56° 109° (ESE) 902 ? 15.6°
Drops below altitude 10° 06:31:28 10° 31° (NNE) 2,388 ? 16.9°
Sets 06:34:02 0° 28° (NNE) 3,361 ? 17.5°
